CW9669 Weather Reports


Display with metric or nautical units.
time (UTC)temp
F
wind
direction
speed
MPH
gust
MPH
rain 1hr
in
rain 24hr
in
rain mn
in
humidity
%
barometer
mb
20260507171808 57 284 0.0 2.0 0.00 0.00 0.00 83 1018.7
20260507170803 56 290 0.0 2.0 0.00 0.00 0.00 83 1018.7
20260507165802 56 304 0.0 3.0 0.00 0.00 0.00 85 1018.7
20260507164801 55 295 1.0 3.0 0.00 0.00 0.00 85 1018.7
20260507163802 55 343 0.0 2.0 0.00 0.00 0.00 86 1018.7
20260507162801 54 307 0.0 3.0 0.00 0.00 0.00 87 1018.8
20260507161801 54 334 0.0 2.0 0.00 0.00 0.00 87 1018.8
20260507160801 53 25 1.0 4.0 0.00 0.00 0.00 88 1018.9
20260507160254 53 286 0.0 3.0 0.00 0.00 0.00 88 1018.9
20260507154801 53 295 1.0 2.0 0.00 0.00 0.00 88 1019.0
20260507153803 53 295 1.0 3.0 0.00 0.00 0.00 88 1019.0
20260507153243 53 321 1.0 3.0 0.00 0.00 0.00 89 1019.1
20260507151802 52 306 1.0 2.0 0.00 0.00 0.00 89 1019.0
20260507150801 52 346 1.0 3.0 0.00 0.00 0.00 90 1019.0
20260507150725 52 296 0.0 2.0 0.00 0.00 0.00 90 1019.0
20260507144800 52 286 0.0 2.0 0.00 0.00 0.00 91 1019.0
20260507143759 52 327 0.0 2.0 0.00 0.00 0.00 90 1018.9
20260507143246 52 282 0.0 1.0 0.00 0.00 0.00 90 1018.9
20260507141801 52 293 0.0 1.0 0.00 0.00 0.00 90 1018.9
20260507141726 52 292 0.0 1.0 0.00 0.00 0.00 90 1018.7
20260507135801 52 285 0.0 0.0 0.00 0.00 0.00 90 1018.7
20260507134800 51 342 1.0 2.0 0.00 0.00 0.00 90 1018.7
20260507134247 51 290 0.0 1.0 0.00 0.00 0.00 90 1018.6
20260507132801 51 312 0.0 1.0 0.00 0.00 0.00 90 1018.7
20260507132233 51 332 1.0 2.0 0.00 0.00 0.00 90 1018.6
20260507131243 51 56 0.0 2.0 0.00 0.00 0.00 90 1018.7
20260507125756 51 298 1.0 2.0 0.00 0.00 0.00 90 1018.8
20260507124757 51 332 0.0 2.0 0.00 0.00 0.00 90 1018.8
20260507123757 52 336 0.0 1.0 0.00 0.00 0.00 90 1018.8
20260507122756 52 296 0.0 2.0 0.00 0.00 0.00 90 1018.9
20260507121757 52 329 1.0 3.0 0.00 0.00 0.00 89 1019.0
20260507120754 52 303 0.0 2.0 0.00 0.00 0.00 89 1019.0
20260507120239 52 325 0.0 1.0 0.00 0.00 0.00 89 1019.1
20260507115230 52 313 0.0 1.0 0.00 0.00 0.00 89 1019.1
20260507113748 52 317 1.0 2.0 0.00 0.00 0.00 89 1019.1
20260507113232 52 313 0.0 2.0 0.00 0.00 0.00 88 1019.2
20260507111747 52 329 0.0 3.0 0.00 0.00 0.00 88 1019.2
20260507110749 52 269 1.0 2.0 0.00 0.00 0.00 88 1019.3
20260507105746 52 292 0.0 1.0 0.00 0.00 0.00 88 1019.3
20260507104746 52 290 0.0 4.0 0.00 0.00 0.00 87 1019.3
20260507103746 52 306 0.0 2.0 0.00 0.00 0.00 87 1019.4
20260507102745 53 317 0.0 2.0 0.00 0.00 0.00 86 1019.5
20260507101745 53 313 1.0 2.0 0.00 0.00 0.00 86 1019.5
20260507100745 53 279 0.0 2.0 0.00 0.00 0.00 86 1019.5
20260507095746 53 293 1.0 2.0 0.00 0.00 0.00 85 1019.5
20260507094743 53 309 1.0 4.0 0.00 0.00 0.00 85 1019.5
20260507093744 53 246 0.0 3.0 0.00 0.00 0.00 85 1019.5
20260507092744 53 318 1.0 5.0 0.00 0.00 0.00 85 1019.5
20260507091745 53 292 1.0 4.0 0.00 0.00 0.00 85 1019.7
20260507090742 53 307 0.0 2.0 0.00 0.00 0.00 85 1019.7
20260507090228 53 303 0.0 3.0 0.00 0.00 0.00 85 1019.9
20260507084743 53 291 0.0 2.0 0.00 0.00 0.00 85 1019.9
20260507084224 53 299 0.0 3.0 0.00 0.00 0.00 85 1019.9
20260507082738 53 313 0.0 3.0 0.00 0.00 0.00 85 1020.0
20260507081740 53 297 1.0 4.0 0.00 0.00 0.00 85 1020.1
20260507080738 53 303 1.0 3.0 0.00 0.00 0.00 85 1020.1
20260507075738 53 277 0.0 4.0 0.00 0.00 0.00 85 1020.1
20260507074736 53 298 0.0 2.0 0.00 0.00 0.00 85 1020.1
20260507074218 53 291 1.0 3.0 0.00 0.00 0.00 85 1020.3
20260507072730 53 273 0.0 2.0 0.00 0.00 0.00 86 1020.2
20260507071730 53 288 0.0 1.0 0.00 0.00 0.00 86 1020.1
20260507071127 53 310 0.0 3.0 0.00 0.00 0.00 86 1020.2
20260507065731 52 294 0.0 1.0 0.00 0.00 0.00 86 1020.2
20260507064729 52 301 0.0 1.0 0.00 0.00 0.00 87 1020.1
20260507064647 52 237 0.0 1.0 0.00 0.00 0.00 87 1020.2
20260507062728 52 237 0.0 1.0 0.00 0.00 0.00 86 1020.1
20260507061727 52 207 0.0 1.0 0.00 0.00 0.00 86 1020.2
20260507060725 53 273 0.0 0.0 0.00 0.00 0.00 85 1020.1
20260507055725 53 313 0.0 1.0 0.00 0.00 0.00 85 1020.1
20260507054725 53 296 0.0 1.0 0.00 0.00 0.00 84 1020.0
20260507054217 53 260 0.0 1.0 0.00 0.00 0.00 84 1020.0
20260507052725 54 315 0.0 0.0 0.00 0.00 0.00 83 1019.9
20260507051726 54 315 0.0 2.0 0.00 0.00 0.00 83 1020.0
20260507050728 55 278 0.0 2.0 0.00 0.00 0.00 82 1019.9
20260507045725 55 292 0.0 1.0 0.00 0.00 0.00 81 1019.9
20260507044730 55 300 1.0 3.0 0.00 0.00 0.00 81 1019.8
20260507043725 56 310 1.0 4.0 0.00 0.00 0.00 80 1019.5
20260507042726 56 281 0.0 3.0 0.00 0.00 0.00 80 1019.6
20260507041726 57 295 0.0 3.0 0.00 0.00 0.00 79 1019.5
20260507040725 57 350 1.0 4.0 0.00 0.00 0.00 79 1019.4
20260507035726 58 281 0.0 3.0 0.00 0.00 0.00 78 1019.3
20260507034726 58 304 2.0 7.0 0.00 0.00 0.00 77 1019.1
20260507033727 59 289 2.0 11.0 0.00 0.00 0.00 76 1019.1
20260507032720 59 293 2.0 8.0 0.00 0.00 0.00 75 1019.1
20260507031717 60 317 2.0 8.0 0.00 0.00 0.00 74 1018.8
20260507031159 61 284 3.0 9.0 0.00 0.00 0.00 73 1018.7
20260507025719 62 300 2.0 8.0 0.00 0.00 0.00 72 1018.6
20260507025205 62 297 1.0 8.0 0.00 0.00 0.00 71 1018.5
20260507023721 63 286 2.0 8.0 0.00 0.00 0.00 70 1018.4
20260507022717 64 277 3.0 10.0 0.00 0.00 0.00 69 1018.4
20260507021717 65 301 1.0 4.0 0.00 0.00 0.00 68 1018.4
20260507020720 65 309 2.0 10.0 0.00 0.00 0.00 67 1018.3
20260507015717 66 268 2.0 6.0 0.00 0.00 0.00 67 1018.4
20260507014717 67 274 2.0 7.0 0.00 0.00 0.00 65 1018.4
20260507013717 68 297 2.0 6.0 0.00 0.00 0.00 64 1018.4
20260507012717 69 249 2.0 7.0 0.00 0.00 0.00 63 1018.3
20260507012642 69 335 2.0 7.0 0.00 0.00 0.00 62 1018.2
20260507010717 69 267 3.0 7.0 0.00 0.00 0.00 62 1018.2
20260507010637 70 284 2.0 8.0 0.00 0.00 0.00 61 1018.2
20260507005159 71 267 2.0 7.0 0.00 0.00 0.00 60 1018.1
20260507003717 71 150 3.0 8.0 0.00 0.00 0.00 60 1018.1
20260507003200 72 294 2.0 8.0 0.00 0.00 0.00 60 1018.0
20260507001717 72 311 1.0 5.0 0.00 0.00 0.00 59 1018.0
20260507001155 72 330 2.0 6.0 0.00 0.00 0.00 58 1018.0
20260506235718 71 289 3.0 9.0 0.00 0.00 0.00 58 1018.0
20260506234717 71 302 3.0 8.0 0.00 0.00 0.00 60 1018.0
20260506233717 71 261 2.0 7.0 0.00 0.00 0.00 58 1018.0
20260506232721 71 244 2.0 10.0 0.00 0.00 0.00 58 1018.0
20260506231718 71 322 2.0 8.0 0.00 0.00 0.00 58 1018.0
20260506230716 71 296 2.0 8.0 0.00 0.00 0.00 57 1018.1
20260506225716 71 283 2.0 8.0 0.00 0.00 0.00 59 1018.1
20260506224715 71 303 2.0 8.0 0.00 0.00 0.00 60 1018.4
20260506223716 70 275 3.0 10.0 0.00 0.00 0.00 63 1018.4
20260506222715 70 263 2.0 9.0 0.00 0.00 0.00 62 1018.6
20260506221716 70 273 1.0 5.0 0.00 0.00 0.00 62 1018.6
20260506220719 70 273 1.0 6.0 0.00 0.00 0.00 63 1018.6
20260506215716 69 209 2.0 8.0 0.00 0.00 0.00 64 1018.9
20260506214715 68 294 2.0 7.0 0.00 0.00 0.00 64 1018.9
20260506213715 68 281 3.0 8.0 0.00 0.00 0.00 66 1018.9
20260506212713 67 35 2.0 8.0 0.00 0.00 0.00 66 1019.1
20260506212154 67 290 3.0 12.0 0.00 0.00 0.00 67 1019.2
20260506210716 67 304 2.0 5.0 0.00 0.00 0.00 67 1019.2
20260506205714 67 341 2.0 6.0 0.00 0.00 0.00 69 1019.2
20260506204714 66 309 1.0 5.0 0.00 0.00 0.00 71 1019.2
20260506203713 64 342 2.0 7.0 0.00 0.00 0.00 72 1019.3
20260506202707 64 318 2.0 5.0 0.00 0.00 0.00 73 1019.4
20260506201705 64 219 3.0 10.0 0.00 0.00 0.00 75 1019.5
20260506200705 64 282 2.0 5.0 0.00 0.00 0.00 74 1019.6
20260506195710 64 313 2.0 5.0 0.00 0.00 0.00 74 1019.7
20260506194709 63 13 2.0 8.0 0.00 0.00 0.00 75 1019.7
20260506193707 62 229 2.0 6.0 0.00 0.00 0.00 76 1019.7
20260506193158 62 312 1.0 8.0 0.00 0.00 0.00 76 1019.7
20260506191706 62 298 1.0 4.0 0.00 0.00 0.00 77 1019.6
20260506191159 62 302 1.0 5.0 0.00 0.00 0.00 77 1019.7
20260506185707 61 296 1.0 3.0 0.00 0.00 0.00 79 1019.8
20260506184703 60 292 2.0 4.0 0.00 0.00 0.00 78 1019.9
20260506183705 61 345 1.0 3.0 0.00 0.00 0.00 77 1019.8
20260506182708 61 151 1.0 4.0 0.00 0.00 0.00 78 1019.7
20260506181705 60 198 0.0 3.0 0.00 0.00 0.00 80 1019.7
20260506180717 59 284 0.0 2.0 0.00 0.00 0.00 80 1019.9
20260506175704 59 273 0.0 2.0 0.00 0.00 0.00 81 1020.0
20260506174704 59 228 0.0 2.0 0.00 0.00 0.00 80 1019.8
20260506174148 58 175 1.0 4.0 0.00 0.00 0.00 82 1019.6
20260506173145 58 158 1.0 3.0 0.00 0.00 0.00 82 1020.0